Dewpoint
61 63 63 67 69 68 69 70 70 70 70 70 70 70 70 70 70 70 70 70 70 70 70 70 70 70 70 70 70 71 70 71 70 70 70 70 70 70 70 70 69 69 69 69 69 69 69 69 70 70 70 70 69 68 68 68 69 70 70 70 70 70 70 70 71 71 71 71 71 71 71 71 71 71 70 70 72 72 72 72 72 70 71 72 72
61 62 62 63 67 67 68 69 69 70 70 70 69 70 70 70 70 70 70 70 70 70 70 70 70 70 70 69 70 70 70 70 70 70 69 70 70 70 70 70 69 69 69 69 69 69 69 69 69 69 69 70 70 70 70 70 70 70 69 70 70 70 70 71 71 70 70 70 70 70 70 70 71 72 72 70 72 73 72 72 72 70 68 73 72
61 61 62 63 67 67 67 68 68 69 68 69 70 70 70 70 70 70 70 70 70 70 70 70 70 70 70 69 69 69 70 70 70 69 69 70 69 69 70 70 70 69 69 69 69 69 69 69 69 70 70 69 69 70 70 70 70 70 70 70 70 71 71 71 70 70 70 70 70 70 69 69 70 72 73 70 73 73 72 72 72 71 69 72 72
60 61 61 64 66 67 66 67 67 67 67 68 69 69 70 70 70 70 70 70 69 69 69 69 69 69 69 69 69 69 69 69 69 69 69 69 69 69 69 69 69 69 69 69 69 69 69 69 69 69 69 69 69 69 69 69 70 70 70 70 70 70 71 71 70 70 70 69 69 69 68 66 67 69 73 74 74 73 72 72 72 72 72 72 72
60 60 61 62 63 65 66 66 66 66 67 67 67 68 68 68 68 69 69 69 69 69 69 70 69 69 69 69 68 68 68 68 68 68 68 68 68 68 68 68 68 69 69 70 69 70 70 70 70 69 69 69 69 69 69 69 69 70 70 70 70 70 70 70 70 69 69 69 69 67 66 66 66 68 73 74 73 73 72 72 72 70 71 72 72
59 60 60 60 61 63 65 65 65 66 66 66 66 66 66 67 68 68 67 68 68 67 68 69 69 68 68 68 67 67 67 67 67 67 67 67 67 67 67 67 67 68 68 69 69 69 69 69 68 67 67 66 66 67 68 69 69 69 70 70 70 69 69 69 69 68 68 68 67 65 66 66 66 66 72 72 73 73 73 72 69 69 70 70 70
59 59 59 59 60 62 64 64 65 65 65 65 65 66 67 67 67 67 67 67 67 67 68 68 67 67 67 67 66 66 66 66 66 66 66 65 65 65 65 66 66 66 67 68 69 68 68 68 67 66 64 64 63 63 64 65 65 66 67 67 68 68 67 67 66 66 67 67 64 65 65 65 65 66 69 71 71 73 71 70 69 69 70 71 71
58 58 58 59 59 63 64 63 64 64 64 64 64 65 66 66 66 66 66 66 66 66 66 66 66 66 66 66 65 65 65 65 65 65 64 64 63 63 63 63 64 64 65 66 66 65 65 65 64 63 62 61 62 62 62 61 62 63 63 63 64 64 64 63 62 63 65 66 65 65 65 64 65 66 68 70 68 71 71 70 70 70 70 70 71
57 57 57 58 58 62 63 64 63 63 63 63 63 64 65 65 65 65 65 65 65 65 65 65 64 64 64 64 64 64 64 64 63 62 62 61 61 61 61 61 61 62 62 62 63 63 62 62 62 61 61 61 60 60 60 60 60 60 61 62 62 62 62 61 60 60 62 64 64 64 64 64 65 65 67 69 69 70 70 70 70 69 70 70 70
56 56 57 57 57 62 62 63 63 63 63 63 63 64 64 64 64 65 65 64 64 64 64 64 64 63 62 62 62 62 63 62 61 60 60 60 59 60 60 60 60 61 62 62 62 61 61 61 60 59 59 58 59 58 58 58 58 59 59 60 60 60 60 60 58 55 56 59 62 64 64 67 66 64 66 69 69 70 70 68 68 69 70 71 71
55 55 55 56 57 62 62 62 62 63 63 63 63 64 64 63 64 64 64 64 64 64 64 63 63 61 61 61 61 61 61 60 59 59 60 59 59 59 59 60 59 59 60 60 60 60 59 59 59 58 58 57 57 57 57 58 58 58 58 58 57 58 58 58 57 51 51 52 56 61 64 66 64 64 67 69 69 70 70 68 69 70 70 70 70
54 54 54 55 59 61 61 62 62 62 63 63 63 63 63 63 63 63 63 63 63 63 63 62 62 61 61 61 60 60 59 59 59 59 59 59 59 58 58 58 57 58 58 58 58 58 58 58 58 57 57 57 57 56 57 57 57 57 56 56 55 56 56 56 54 52 49 49 52 58 60 62 64 64 68 69 69 67 71 69 70 70 69 69 70
53 53 54 55 56 61 61 61 61 62 62 63 63 62 62 62 63 63 63 62 62 62 62 61 60 59 59 59 59 59 59 59 59 58 58 58 57 57 57 57 56 57 57 57 57 57 57 57 57 57 57 56 56 56 57 57 57 56 56 54 54 54 54 53 52 51 50 49 50 52 56 59 62 65 68 69 69 69 69 70 70 69 69 69 69
51 52 53 54 54 59 60 60 60 61 61 61 62 61 61 61 61 61 61 61 60 60 60 59 58 58 58 59 59 59 59 59 59 58 57 56 56 56 56 55 56 56 55 55 55 55 56 57 56 57 56 56 56 56 57 56 55 54 53 53 53 53 53 53 53 50 50 49 51 51 52 57 58 63 65 66 67 67 68 68 70 70 69 69 69
51 51 51 52 54 55 59 59 59 59 60 60 60 60 60 60 59 59 59 59 59 58 58 58 58 58 58 58 58 58 58 57 57 57 56 55 54 54 54 54 55 55 55 55 54 55 55 56 56 56 55 55 54 55 54 53 53 53 52 52 51 51 51 50 49 48 49 50 49 51 52 54 59 62 64 66 67 67 67 67 69 69 69 69 69
50 50 51 51 52 53 55 58 59 59 59 59 59 58 58 58 58 58 58 57 57 57 57 58 58 57 57 57 56 56 56 55 55 55 55 55 53 53 54 54 55 55 55 54 55 55 55 54 54 53 52 53 52 53 52 52 52 52 51 51 51 51 50 49 45 45 45 47 50 51 51 54 57 61 61 62 64 66 67 67 69 69 69 69 69
50 50 50 50 51 52 53 54 56 57 57 58 57 57 57 56 56 56 57 57 56 57 57 57 57 57 57 56 53 52 52 51 51 53 54 54 53 53 53 54 54 54 54 54 54 54 54 54 53 51 50 51 51 51 51 51 51 50 50 50 49 49 48 47 41 41 42 47 47 48 47 48 56 58 60 60 61 63 66 67 69 69 69 68 68
49 49 50 50 50 51 52 51 53 53 52 55 57 56 56 56 56 55 55 55 56 56 56 56 56 56 55 54 52 51 50 49 49 50 53 54 52 52 52 53 54 53 53 53 53 53 52 52 51 50 50 49 49 49 49 49 50 49 48 48 48 47 46 45 39 40 40 44 42 45 42 52 55 57 59 60 60 61 61 63 66 67 68 68 68
49 49 49 49 50 50 50 50 50 49 50 50 50 54 56 55 55 55 54 55 55 55 55 54 53 53 52 52 51 51 50 49 48 48 49 50 50 50 50 52 52 52 52 52 51 51 50 50 50 49 48 48 48 48 48 48 48 48 47 47 47 46 44 42 39 39 40 38 41 40 41 52 54 55 57 59 59 59 59 59 59 60 61 64 65
48 48 48 49 49 49 49 49 48 48 47 47 48 49 54 55 55 54 54 54 54 53 53 51 50 50 49 49 49 48 48 46 46 44 46 48 48 48 48 50 50 50 50 50 50 50 49 49 48 48 46 46 46 46 46 47 47 47 46 47 46 44 39 39 39 38 39 39 43 38 47 52 54 55 56 57 57 57 58 58 58 58 59 60 61
46 47 48 47 47 48 48 47 47 46 46 46 46 47 50 53 53 53 53 52 52 51 51 50 51 50 49 49 45 39 40 40 41 42 45 45 45 49 46 48 48 48 48 49 49 48 48 47 46 46 45 44 44 44 44 45 46 46 46 45 44 38 39 39 38 39 39 38 42 40 48 51 53 55 56 56 56 56 57 57 58 58 58 58 58
43 44 46 46 46 47 47 46 45 45 45 46 46 46 48 50 47 48 48 49 50 50 47 43 48 44 47 44 39 39 36 37 41 46 44 45 44 46 45 45 46 45 47 47 47 47 47 46 45 44 44 44 41 36 38 42 43 44 43 43 38 38 39 38 38 37 38 36 44 43 48 50 51 54 55 56 56 56 56 56 56 57 57 57 57
39 41 43 44 45 45 46 44 44 43 44 44 45 45 46 44 44 44 44 46 45 43 40 43 40 40 43 42 42 37 35 38 39 41 45 47 45 44 43 43 43 42 43 45 45 45 46 46 44 43 42 41 35 35 35 36 37 40 40 37 38 38 38 38 37 37 37 38 39 44 47 48 50 52 54 55 55 55 55 55 55 56 56 57 57
35 38 40 42 42 43 44 42 42 42 43 43 44 44 43 42 42 41 41 40 42 41 40 41 40 39 40 40 39 37 37 37 46 46 44 39 41 45 42 42 42 41 39 39 41 43 42 43 43 41 40 38 34 34 35 35 35 35 35 36 37 37 37 37 37 37 36 39 39 43 46 47 48 50 52 53 54 54 54 55 55 56 56 56 57
32 35 37 37 39 40 41 39 40 39 40 41 42 42 39 39 38 39 38 38 40 39 39 39 38 37 37 37 37 38 37 37 37 35 34 34 33 33 33 34 34 36 39 33 33 34 35 34 34 36 33 34 34 33 34 34 35 35 34 35 35 35 36 37 36 36 36 36 38 43 45 46 47 48 50 52 53 53 54 54 54 55 55 56 57
30 31 33 34 37 36 38 37 39 37 37 37 39 39 37 35 35 35 36 36 38 37 38 37 37 36 36 36 37 35 34 34 33 33 33 33 33 33 33 33 32 33 38 32 32 32 32 32 33 33 33 33 33 33 34 37 34 34 34 34 34 35 35 35 35 34 34 35 36 41 43 44 46 47 48 50 51 52 53 53 54 55 55 56 57
29 30 31 32 34 35 35 36 38 37 35 33 33 35 34 32 32 34 35 35 37 36 36 36 36 34 34 37 35 33 33 33 33 33 33 33 32 32 32 32 31 31 35 31 32 32 32 32 32 33 33 33 33 33 33 34 34 34 33 34 34 34 34 33 33 33 33 34 37 40 41 42 44 46 47 48 50 51 51 52 53 54 55 55 56
28 28 29 30 34 33 34 35 37 37 36 32 30 33 34 34 33 37 36 37 37 36 35 35 35 33 34 36 35 33 32 32 32 32 33 32 32 32 32 32 31 31 33 33 31 31 32 32 32 32 32 33 32 31 33 33 33 33 33 33 33 32 31 32 31 32 32 32 33 36 40 41 42 44 46 47 49 50 51 51 52 53 54 55 55
27 28 28 28 31 33 33 34 36 37 36 34 28 34 35 35 34 35 35 39 36 35 35 35 34 33 34 36 35 32 32 32 32 32 32 31 32 31 31 31 31 31 32 31 32 31 31 32 32 31 32 31 30 30 33 31 31 32 32 31 31 30 30 30 30 31 31 31 31 33 38 40 41 43 45 46 48 49 49 50 51 52 53 54 54
28 27 28 27 28 31 31 32 34 36 36 35 29 33 36 35 33 34 34 39 35 35 35 34 32 32 33 35 33 31 31 31 32 32 30 31 31 31 31 30 29 30 31 30 33 32 31 31 31 31 31 30 29 30 30 30 31 31 30 30 29 29 29 29 29 29 30 30 30 31 36 38 40 42 44 45 47 48 49 50 51 51 52 53 53
29 27 27 27 29 30 31 32 32 37 36 35 32 31 35 34 34 34 34 37 35 35 34 32 32 31 31 33 33 32 31 31 31 31 30 30 30 30 30 30 29 30 31 30 33 33 32 30 31 31 30 29 29 30 31 30 29 28 29 29 28 28 28 28 28 29 28 28 29 30 33 36 38 41 43 45 46 47 48 49 49 50 51 52 53
28 28 27 28 27 28 29 30 31 34 35 34 34 31 33 33 33 35 34 36 35 34 33 31 33 31 32 32 32 32 32 31 31 31 30 29 29 29 30 29 28 30 31 31 32 32 31 31 32 32 31 30 29 29 31 29 28 27 28 28 28 28 28 28 27 27 28 28 28 28 29 33 36 39 41 44 45 46 47 48 48 49 50 50 51
28 28 28 29 26 27 28 29 30 33 33 32 32 31 32 33 33 34 34 36 34 33 31 30 31 31 32 31 31 32 32 31 30 31 33 29 29 30 30 30 28 28 31 32 31 30 30 29 31 31 31 29 29 29 32 29 27 27 27 27 28 27 27 27 26 27 27 28 28 28 29 31 32 37 39 41 43 45 46 47 47 48 48 48 49
29 28 27 27 27 29 30 30 30 31 32 30 30 30 32 32 33 33 34 34 32 32 31 30 31 31 31 31 31 32 31 30 30 31 30 29 29 29 29 29 28 29 31 31 29 30 29 29 30 28 32 30 28 29 28 26 27 27 27 28 28 27 26 26 27 27 28 27 27 28 29 30 31 32 34 39 40 42 45 46 47 47 47 48 47
31 27 27 27 28 28 29 28 32 30 33 30 31 29 31 32 32 31 33 33 32 31 31 31 31 31 30 30 32 32 31 30 30 30 29 29 29 29 29 28 29 29 28 31 28 30 28 29 30 27 28 29 29 31 28 27 26 26 26 27 26 27 28 27 28 28 27 27 27 28 29 30 31 32 34 33 37 40 43 45 47 48 48 47 48
30 28 27 27 26 26 30 28 30 30 32 30 30 30 31 32 31 33 32 32 31 30 31 31 31 31 30 30 31 32 31 30 30 29 29 29 28 28 28 29 30 28 29 30 30 28 29 29 30 29 27 28 28 25 26 26 27 26 27 27 27 28 28 28 27 26 26 27 27 28 29 30 31 31 37 34 35 36 42 43 46 47 48 48 48
29 28 27 27 26 26 30 28 29 29 31 30 30 30 31 31 30 31 32 32 31 30 31 31 31 30 29 29 31 32 30 30 30 29 28 28 27 27 28 29 29 27 28 29 29 31 29 29 30 32 28 27 26 25 25 26 26 27 27 27 27 28 27 26 25 25 29 28 27 28 29 30 32 38 34 33 34 35 38 42 43 45 46 47 48
29 29 27 26 25 26 28 28 29 29 30 30 30 30 31 31 30 31 33 31 30 30 31 31 30 30 29 29 31 32 30 30 30 29 28 27 27 28 28 28 28 28 28 27 26 30 29 28 28 30 28 26 25 25 25 26 28 28 27 26 26 25 25 25 25 31 27 26 26 28 28 30 31 32 33 33 34 34 35 38 41 42 42 44 47
28 28 27 26 26 26 28 29 29 29 30 29 30 30 31 30 30 31 31 30 30 30 31 31 31 30 29 30 31 31 31 30 29 29 27 28 27 28 28 28 28 28 27 27 27 30 30 29 27 27 29 27 26 27 27 28 28 27 26 25 25 24 24 25 27 26 24 25 27 32 33 31 31 32 33 34 34 35 36 37 37 37 37 43 45
27 27 27 26 25 25 27 28 29 28 28 29 30 30 30 30 29 30 30 30 29 30 30 30 30 30 30 30 31 30 30 30 29 29 28 28 27 27 27 29 28 27 27 26 26 27 28 27 27 26 26 28 29 28 28 27 25 25 26 25 24 24 23 24 24 24 26 27 27 28 26 28 30 32 33 35 36 36 37 37 38 38 38 38 41
27 26 26 26 25 25 27 27 28 27 27 28 29 28 28 29 29 29 28 29 28 29 30 30 30 29 30 30 31 30 30 30 29 28 27 29 27 27 27 28 28 27 27 26 26 26 27 26 29 29 27 26 27 28 27 27 25 16 23 22 21 21 24 26 24 25 27 23 23 23 24 26 28 30 30 33 34 34 34 35 34 32 32 32 32
27 26 26 25 25 25 25 26 27 26 27 27 28 28 28 28 27 27 27 28 28 29 28 28 29 31 30 30 31 30 30 29 29 28 27 27 26 27 27 27 27 27 27 28 27 31 29 27 27 27 28 27 26 27 27 23 22 20 18 17 21 20 22 25 22 22 20 23 25 25 23 24 25 25 26 26 27 27 28 29 29 28 29 30 31
27 26 26 25 24 24 25 26 26 26 27 27 28 27 27 28 27 27 27 27 28 28 28 28 30 30 30 30 30 30 30 29 29 28 27 26 26 26 26 26 26 28 27 27 28 28 27 26 27 26 25 27 28 29 26 23 19 22 22 22 16 15 21 16 23 19 20 23 25 23 23 25 25 25 26 25 24 25 28 28 29 30 31 32 32
28 26 25 25 24 25 24 25 26 26 26 27 28 27 27 28 27 27 27 27 27 29 28 28 29 30 30 30 30 29 29 29 29 28 27 26 25 25 26 26 26 28 27 26 26 25 26 26 27 28 25 23 23 23 29 25 24 19 8 17 16 20 10 12 18 19 21 23 21 19 23 25 25 25 27 22 24 26 27 28 29 30 31 31 31
28 26 26 25 23 24 24 25 25 25 26 28 28 27 28 27 27 27 27 26 27 26 27 27 28 29 29 29 29 29 29 28 28 28 27 26 26 25 25 25 26 27 26 25 24 24 25 26 26 27 25 23 22 24 26 27 25 27 20 18 13 13 13 13 19 15 22 16 19 22 26 24 23 24 22 22 25 25 26 26 27 28 29 30 28
27 27 26 25 24 24 24 24 25 25 26 27 27 27 27 26 25 25 24 24 24 25 25 25 26 27 28 28 28 29 29 28 28 27 27 26 25 25 25 25 25 26 26 25 24 25 25 25 25 26 25 24 23 24 23 26 27 27 27 21 17 9 16 21 14 6 17 14 21 22 18 21 21 21 21 22 23 23 24 23 25 25 26 26 26
26 27 26 25 24 24 23 24 24 25 27 27 27 27 26 25 24 24 24 23 23 24 25 25 26 27 28 27 28 28 28 27 27 27 27 26 25 25 25 24 24 25 27 24 24 24 24 25 27 24 24 28 24 23 23 23 23 25 27 26 26 26 24 20 16 19 10 17 19 14 14 18 20 20 21 21 20 19 19 21 22 22 23 24 24
26 26 25 25 24 23 23 24 24 25 26 27 26 26 25 25 24 24 24 23 22 22 24 24 26 26 26 27 27 28 28 27 27 26 26 26 25 25 24 24 24 24 26 24 24 24 25 26 26 25 27 26 24 22 22 23 20 21 26 23 24 24 23 23 21 20 19 17 12 13 16 20 18 18 19 18 18 19 18 19 20 21 21 22 24
26 25 25 24 24 24 23 24 24 24 26 26 26 26 25 24 24 23 23 24 22 23 24 26 26 27 25 26 26 27 27 27 26 26 26 26 26 24 24 23 23 24 27 25 24 24 24 25 25 24 24 24 24 24 22 23 23 22 21 21 22 22 21 21 21 21 19 17 14 15 13 17 17 18 19 19 19 20 20 20 21 23 24 23 23
26 28 25 25 24 24 23 23 23 24 25 25 26 25 25 25 23 23 23 23 23 23 23 23 24 26 25 25 25 26 27 26 26 26 26 26 26 25 24 23 23 24 26 24 24 24 23 23 23 22 23 23 25 24 23 24 23 23 22 22 21 21 20 21 20 19 19 19 17 16 17 17 16 16 18 18 20 20 20 20 20 21 21 21 22
24 25 25 24 24 24 23 23 23 24 25 25 25 24 24 24 23 23 22 22 22 22 22 21 23 24 24 24 25 25 26 26 26 25 25 25 25 25 24 23 23 25 26 23 23 23 23 23 23 23 23 23 23 25 27 25 24 24 23 23 22 21 20 20 19 20 19 19 18 18 17 18 17 17 17 18 19 19 19 20 20 21 21 22 22